Location: Unspecified
(0.0000°N, 0.0000°E)
Time: 09:11:21
(UTC+00:00)

Explorer 11/Cluster Stage 4 - Pass Details

Date: 18 July 2020
Orbit: 467 x 1259 km, 28.8° (Epoch: 03 August)

Event Time Altitude Azimuth Distance (km) Brightness Sun altitude
Rises 02:51:45 0° 214° (SW) 3,049 - -44.5°
Reaches altitude 10° 02:55:20 10° 190° (S) 1,963 - -43.7°
Maximum altitude 02:57:48 14° 157° (SSE) 1,590 - -43.2°
Drops below altitude 10° 03:00:04 10° 122° (ESE) 1,773 - -42.7°
Sets 03:03:01 0° 96° (E) 2,566 - -42.0°
